This is the latest recevied weather packets stored in our database for station/object IA5ITY-13. If no packets are shown the sender has not sent any weather packets the latest 10 day(s).
| Time | Temp. | Humidity | Pressure | Rain* | Wind** | Luminosity | Snow |
|---|---|---|---|---|---|---|---|
| 1777833613 | 16.11° C | 77% | 1017.3 hPa | 0 mm | - | - | - |
| 1777833309 | 16.11° C | 77% | 1017.3 hPa | 0 mm | - | - | - |
| 1777833022 | 16.11° C | 77% | 1017.2 hPa | 0 mm | - | - | - |
| 1777831812 | 16.11° C | 75% | 1017.2 hPa | 0 mm | - | - | - |
| 1777829709 | 17.22° C | 73% | 1017.1 hPa | 0 mm | - | - | - |
| 1777828214 | 17.78° C | 73% | 1017.2 hPa | 0 mm | - | - | - |
| 1777827013 | 17.78° C | 67% | 1017.1 hPa | 0 mm | - | - | - |
| 1777824033 | 18.89° C | 65% | 1017.1 hPa | 0 mm | - | - | - |
| 1777823412 | 18.89° C | 63% | 1017.1 hPa | 0 mm | - | - | - |
| 1777819212 | 20° C | 61% | 1017.6 hPa | 0 mm | - | - | - |
| 1777818622 | 20° C | 61% | 1017.6 hPa | 0 mm | - | - | - |
| 1777817412 | 20° C | 59% | 1017.5 hPa | 0 mm | - | - | - |
| 1777812909 | 20° C | 59% | 1018.7 hPa | 0 mm | - | - | - |
| 1777811422 | 20° C | 59% | 1019 hPa | 0 mm | - | - | - |
| 1777809012 | 20° C | 56% | 1019.6 hPa | 0 mm | - | - | - |
| 1777807822 | 21.11° C | 55% | 1019.7 hPa | 0 mm | - | - | - |
| 1777807212 | 22.22° C | 55% | 1019.6 hPa | 0 mm | - | - | - |
| 1777806030 | 22.22° C | 56% | 1019.9 hPa | 0 mm | - | - | - |
| 1777805413 | 20° C | 63% | 1019.8 hPa | 0 mm | - | - | - |
| 1777802709 | 20° C | 59% | 1019.6 hPa | 0 mm | - | - | - |
| 1777802429 | 20° C | 61% | 1019.6 hPa | 0 mm | - | - | - |
| 1777801812 | 18.89° C | 66% | 1019.9 hPa | 0 mm | - | - | - |
| 1777801212 | 18.89° C | 65% | 1019.9 hPa | 0 mm | - | - | - |
| 1777800909 | 17.78° C | 67% | 1020 hPa | 0 mm | - | - | - |
| 1777800620 | 17.78° C | 64% | 1019.9 hPa | 0 mm | - | - | - |
* Rain latest hour (hover to see other rain measurements)
** Current wind speed in m/s (hover to see current wind gust speed)